User: anonymous   Login
Location: ????
(30.2663°N, 31.2484°E)
Time: 17:19:23
(UTC+00:00)
Language:

FENGYUN 1C DEB - Orbit

View from above orbital plane
View from above orbital plane
View from above satellite
View from above satellite

Ground track
Ground track

The orbit data is extracted from the following two-line orbital elements,

1 46995U 99025EZV 23272.33903475  .00005370  00000-0  46462-2 0  9997
2 46995  98.5957  53.7892 0207754 144.7068 216.8044 13.77285356493443
Epoch (UTC): 29 September 2023 08:08:12
Eccentricity: 0.0207754
inclination: 98.5957°
perigee height: 821 km
apogee height: 1126 km
right ascension of ascending node: 53.7892°
argument of perigee: 144.7068°
revolutions per day: 13.77285356
mean anomaly at epoch: 216.8044°
orbit number at epoch: 49344

The dashed part of the orbit path shows where the satellite is in the earth's shadow,  

DLR